| time (UTC) | temp C | wind direction | speed KPH | gust KPH | rain 1hr cm | rain 24hr cm | rain mn cm | humidity % | barometer mb |
| 20260903193249 | 29 | 295 | 0.0 | 0.0 | 0.10 | 0.33 | 0.15 | 100 | 1015.0 |
| 20260903193128 | 30 | 295 | 0.0 | 4.8 | 0.13 | 0.33 | 0.15 | 100 | 1015.0 |
| 20260903192749 | 30 | 295 | 0.0 | 4.8 | 0.13 | 0.33 | 0.15 | 100 | 1015.0 |
| 20260903192619 | 30 | 271 | 0.0 | 0.0 | 0.13 | 0.33 | 0.15 | 100 | 1015.0 |
| 20260903192249 | 30 | 271 | 0.0 | 0.0 | 0.13 | 0.33 | 0.15 | 100 | 1015.0 |
| 20260903192138 | 30 | 271 | 0.0 | 3.2 | 0.13 | 0.33 | 0.15 | 100 | 1015.1 |
| 20260903191749 | 30 | 271 | 0.0 | 3.2 | 0.13 | 0.33 | 0.15 | 100 | 1015.1 |
| 20260903191604 | 30 | 261 | 0.0 | 4.8 | 0.13 | 0.33 | 0.15 | 100 | 1015.2 |
| 20260903191249 | 30 | 261 | 0.0 | 4.8 | 0.13 | 0.33 | 0.15 | 100 | 1015.2 |
| 20260903191123 | 29 | 222 | 0.0 | 0.0 | 0.13 | 0.33 | 0.15 | 100 | 1015.2 |
| 20260903190749 | 29 | 222 | 0.0 | 0.0 | 0.13 | 0.33 | 0.15 | 100 | 1015.2 |
| 20260903190447 | 29 | 222 | 0.0 | 3.2 | 0.13 | 0.33 | 0.15 | 100 | 1015.3 |
| 20260903190249 | 29 | 222 | 0.0 | 3.2 | 0.13 | 0.33 | 0.15 | 100 | 1015.3 |
| 20260903190124 | 28 | 272 | 1.6 | 6.4 | 0.13 | 0.33 | 0.15 | 100 | 1015.5 |
| 20260903185749 | 28 | 272 | 1.6 | 6.4 | 0.13 | 0.33 | 0.15 | 100 | 1015.5 |
| 20260903185612 | 28 | 212 | 1.6 | 6.4 | 0.13 | 0.33 | 0.15 | 100 | 1015.7 |
| 20260903185249 | 28 | 212 | 1.6 | 6.4 | 0.13 | 0.33 | 0.15 | 100 | 1015.7 |
| 20260903185014 | 28 | 189 | 3.2 | 12.9 | 0.13 | 0.33 | 0.15 | 100 | 1015.7 |
| 20260903184749 | 28 | 189 | 3.2 | 12.9 | 0.13 | 0.33 | 0.15 | 100 | 1015.7 |
| 20260903184552 | 28 | 212 | 3.2 | 16.1 | 0.10 | 0.30 | 0.13 | 100 | 1015.6 |
| 20260903184513 | 28 | 212 | 3.2 | 16.1 | 0.10 | 0.30 | 0.13 | 100 | 1015.6 |
| 20260903184249 | 28 | 212 | 3.2 | 16.1 | 0.10 | 0.30 | 0.13 | 100 | 1015.6 |
| 20260903183958 | 28 | 175 | 8.0 | 20.9 | 0.03 | 0.23 | 0.05 | 100 | 1015.7 |
| 20260903183749 | 28 | 175 | 8.0 | 20.9 | 0.03 | 0.23 | 0.05 | 100 | 1015.7 |
| 20260903183249 | 28 | 154 | 9.7 | 22.5 | 0.03 | 0.23 | 0.05 | 100 | 1016.0 |
| 20260903182749 | 28 | 210 | 12.9 | 22.5 | 0.00 | 0.20 | 0.03 | 100 | 1015.9 |
| 20260903182533 | 28 | 184 | 8.0 | 30.6 | 0.00 | 0.20 | 0.03 | 100 | 1015.8 |
| 20260903182249 | 28 | 184 | 8.0 | 30.6 | 0.00 | 0.20 | 0.03 | 100 | 1015.8 |
| 20260903181749 | 31 | 185 | 3.2 | 32.2 | 0.00 | 0.20 | 0.03 | 100 | 1015.6 |
| 20260903181533 | 32 | 233 | 14.5 | 17.7 | 0.00 | 0.20 | 0.03 | 100 | 1015.6 |
| 20260903181249 | 32 | 233 | 14.5 | 17.7 | 0.00 | 0.20 | 0.03 | 100 | 1015.6 |
| 20260903180749 | 33 | 243 | 9.7 | 14.5 | 0.00 | 0.20 | 0.03 | 100 | 1015.4 |
| 20260903180534 | 33 | 246 | 9.7 | 12.9 | 0.00 | 0.20 | 0.03 | 100 | 1015.5 |
| 20260903180503 | 33 | 246 | 9.7 | 12.9 | 0.00 | 0.20 | 0.03 | 100 | 1015.5 |
| 20260903180249 | 33 | 246 | 9.7 | 12.9 | 0.00 | 0.20 | 0.03 | 100 | 1015.5 |
| 20260903180042 | 34 | 240 | 8.0 | 12.9 | 0.00 | 0.20 | 0.03 | 100 | 1015.6 |
| 20260903175749 | 34 | 240 | 8.0 | 12.9 | 0.00 | 0.20 | 0.03 | 100 | 1015.6 |
| 20260903175249 | 35 | 157 | 1.6 | 6.4 | 0.00 | 0.20 | 0.03 | 100 | 1015.5 |
| 20260903174749 | 38 | 172 | 3.2 | 4.8 | 0.00 | 0.20 | 0.03 | 100 | 1015.5 |
| 20260903174521 | 43 | 181 | 4.8 | 8.0 | 0.00 | 0.20 | 0.03 | 100 | 1015.5 |
| 20260903174249 | 43 | 181 | 4.8 | 8.0 | 0.00 | 0.20 | 0.03 | 100 | 1015.5 |
| 20260903173930 | 45 | 111 | 3.2 | 4.8 | 0.00 | 0.20 | 0.03 | 100 | 1015.5 |
| 20260903173749 | 45 | 111 | 3.2 | 4.8 | 0.00 | 0.20 | 0.03 | 100 | 1015.5 |
| 20260903173535 | 36 | 90 | 0.0 | 9.7 | 0.00 | 0.20 | 0.03 | 100 | 1015.6 |
| 20260903173249 | 36 | 90 | 0.0 | 9.7 | 0.00 | 0.20 | 0.03 | 100 | 1015.6 |
| 20260903173055 | 40 | 154 | 4.8 | 11.3 | 0.00 | 0.20 | 0.03 | 100 | 1015.6 |
| 20260903172749 | 40 | 154 | 4.8 | 11.3 | 0.00 | 0.20 | 0.03 | 100 | 1015.6 |
| 20260903172616 | 47 | 143 | 4.8 | 9.7 | 0.00 | 0.20 | 0.03 | 100 | 1015.6 |
| 20260903172249 | 47 | 143 | 4.8 | 9.7 | 0.00 | 0.20 | 0.03 | 100 | 1015.6 |
| 20260903171749 | 41 | 99 | 0.0 | 9.7 | 0.00 | 0.20 | 0.03 | 100 | 1015.6 |
| 20260903171456 | 47 | 92 | 3.2 | 8.0 | 0.00 | 0.20 | 0.03 | 100 | 1015.6 |
| 20260903171249 | 47 | 92 | 3.2 | 8.0 | 0.00 | 0.20 | 0.03 | 100 | 1015.6 |
| 20260903170749 | 43 | 74 | 3.2 | 9.7 | 0.00 | 0.20 | 0.03 | 100 | 1015.7 |
| 20260903170554 | 42 | 222 | 8.0 | 12.9 | 0.00 | 0.20 | 0.03 | 100 | 1015.7 |
| 20260903170249 | 42 | 222 | 8.0 | 12.9 | 0.00 | 0.20 | 0.03 | 100 | 1015.7 |
| 20260903170036 | 48 | 260 | 4.8 | 12.9 | 0.00 | 0.20 | 0.03 | 100 | 1015.9 |
| 20260903165749 | 48 | 260 | 4.8 | 12.9 | 0.00 | 0.20 | 0.03 | 100 | 1015.9 |
| 20260903165249 | 49 | 192 | 11.3 | 11.3 | 0.00 | 0.20 | 0.03 | 100 | 1015.9 |
| 20260903165010 | 50 | 255 | 4.8 | 9.7 | 0.00 | 0.20 | 0.03 | 100 | 1016.0 |
| 20260903164749 | 50 | 255 | 4.8 | 9.7 | 0.00 | 0.20 | 0.03 | 100 | 1016.0 |
| 20260903164556 | 47 | 247 | 3.2 | 12.9 | 0.00 | 0.20 | 0.03 | 100 | 1016.1 |
| 20260903164249 | 47 | 247 | 3.2 | 12.9 | 0.00 | 0.20 | 0.03 | 100 | 1016.1 |
| 20260903164114 | 48 | 187 | 11.3 | 11.3 | 0.00 | 0.20 | 0.03 | 100 | 1016.2 |
| 20260903164019 | 48 | 187 | 11.3 | 11.3 | 0.00 | 0.20 | 0.03 | 100 | 1016.2 |
| 20260903163749 | 48 | 187 | 11.3 | 11.3 | 0.00 | 0.20 | 0.03 | 100 | 1016.2 |
| 20260903163522 | 46 | 199 | 1.6 | 11.3 | 0.00 | 0.20 | 0.03 | 100 | 1016.3 |
| 20260903163249 | 46 | 199 | 1.6 | 11.3 | 0.00 | 0.20 | 0.03 | 100 | 1016.3 |
| 20260903163039 | 46 | 233 | 1.6 | 11.3 | 0.00 | 0.20 | 0.03 | 100 | 1016.4 |
| 20260903162749 | 46 | 233 | 1.6 | 11.3 | 0.00 | 0.20 | 0.03 | 100 | 1016.4 |
| 20260903162507 | 45 | 239 | 8.0 | 14.5 | 0.00 | 0.20 | 0.03 | 100 | 1016.3 |
| 20260903162249 | 45 | 239 | 8.0 | 14.5 | 0.00 | 0.20 | 0.03 | 100 | 1016.3 |
| 20260903162037 | 46 | 130 | 3.2 | 6.4 | 0.00 | 0.20 | 0.03 | 100 | 1016.3 |
| 20260903161750 | 46 | 130 | 3.2 | 6.4 | 0.00 | 0.20 | 0.03 | 100 | 1016.3 |
| 20260903161523 | 45 | 233 | 4.8 | 11.3 | 0.00 | 0.20 | 0.03 | 100 | 1016.4 |
| 20260903161249 | 45 | 233 | 4.8 | 11.3 | 0.00 | 0.20 | 0.03 | 100 | 1016.4 |
| 20260903160749 | 43 | 223 | 9.7 | 11.3 | 0.00 | 0.20 | 0.03 | 100 | 1016.4 |
| 20260903160250 | 42 | 206 | 0.0 | 8.0 | 0.00 | 0.20 | 0.03 | 100 | 1016.4 |
| 20260903160120 | 40 | 133 | 3.2 | 9.7 | 0.00 | 0.20 | 0.03 | 100 | 1016.5 |
| 20260903155750 | 40 | 133 | 3.2 | 9.7 | 0.00 | 0.20 | 0.03 | 100 | 1016.5 |
| 20260903155250 | 42 | 168 | 1.6 | 8.0 | 0.00 | 0.20 | 0.03 | 100 | 1016.5 |
| 20260903155108 | 40 | 127 | 4.8 | 9.7 | 0.00 | 0.20 | 0.03 | 100 | 1016.6 |
| 20260903154750 | 40 | 127 | 4.8 | 9.7 | 0.00 | 0.20 | 0.03 | 100 | 1016.6 |
| 20260903154250 | 38 | 77 | 3.2 | 12.9 | 0.00 | 0.20 | 0.03 | 100 | 1016.6 |
| 20260903154122 | 36 | 87 | 8.0 | 11.3 | 0.00 | 0.20 | 0.03 | 100 | 1016.7 |
| 20260903153750 | 36 | 87 | 8.0 | 11.3 | 0.00 | 0.20 | 0.03 | 100 | 1016.7 |
| 20260903153250 | 37 | 108 | 9.7 | 12.9 | 0.00 | 0.20 | 0.03 | 100 | 1016.7 |
| 20260903153034 | 33 | 127 | 3.2 | 11.3 | 0.00 | 0.20 | 0.03 | 100 | 1016.8 |
| 20260903152750 | 33 | 127 | 3.2 | 11.3 | 0.00 | 0.20 | 0.03 | 100 | 1016.8 |
| 20260903152250 | 36 | 118 | 6.4 | 11.3 | 0.00 | 0.20 | 0.03 | 100 | 1016.8 |
| 20260903151750 | 35 | 108 | 9.7 | 12.9 | 0.00 | 0.20 | 0.03 | 100 | 1016.8 |
| 20260903151516 | 34 | 153 | 3.2 | 11.3 | 0.00 | 0.20 | 0.03 | 100 | 1016.8 |
| 20260903151250 | 34 | 153 | 3.2 | 11.3 | 0.00 | 0.20 | 0.03 | 100 | 1016.8 |
| 20260903151034 | 33 | 163 | 11.3 | 11.3 | 0.00 | 0.20 | 0.03 | 100 | 1016.8 |
| 20260903150750 | 33 | 163 | 11.3 | 11.3 | 0.00 | 0.20 | 0.03 | 100 | 1016.8 |
| 20260903150250 | 32 | 84 | 4.8 | 9.7 | 0.00 | 0.46 | 0.03 | 100 | 1016.8 |
| 20260903145750 | 32 | 104 | 8.0 | 11.3 | 0.00 | 0.46 | 0.03 | 100 | 1016.7 |
| 20260903145636 | 32 | 104 | 9.7 | 11.3 | 0.00 | 0.46 | 0.03 | 100 | 1016.7 |
| 20260903145250 | 32 | 104 | 9.7 | 11.3 | 0.00 | 0.46 | 0.03 | 100 | 1016.7 |
| 20260903144750 | 32 | 130 | 3.2 | 6.4 | 0.00 | 0.46 | 0.03 | 100 | 1016.6 |
| 20260903144652 | 31 | 158 | 6.4 | 12.9 | 0.00 | 0.46 | 0.03 | 100 | 1016.5 |
| 20260903144250 | 31 | 158 | 6.4 | 12.9 | 0.00 | 0.46 | 0.03 | 100 | 1016.5 |
| 20260903143750 | 31 | 150 | 4.8 | 11.3 | 0.00 | 0.46 | 0.03 | 100 | 1016.4 |
| 20260903143250 | 30 | 192 | 6.4 | 9.7 | 0.00 | 0.46 | 0.03 | 100 | 1016.3 |
| 20260903143104 | 29 | 171 | 1.6 | 9.7 | 0.00 | 0.46 | 0.03 | 100 | 1016.4 |
| 20260903142750 | 29 | 171 | 1.6 | 9.7 | 0.00 | 0.46 | 0.03 | 100 | 1016.4 |
| 20260903142250 | 29 | 136 | 3.2 | 8.0 | 0.00 | 0.46 | 0.03 | 100 | 1016.5 |
| 20260903141750 | 31 | 143 | 1.6 | 8.0 | 0.00 | 0.46 | 0.03 | 100 | 1016.5 |
| 20260903141250 | 31 | 153 | 4.8 | 6.4 | 0.00 | 0.46 | 0.03 | 100 | 1016.5 |
| 20260903141131 | 30 | 139 | 3.2 | 11.3 | 0.00 | 0.46 | 0.03 | 100 | 1016.5 |
| 20260903140750 | 30 | 139 | 3.2 | 11.3 | 0.00 | 0.46 | 0.03 | 100 | 1016.5 |
| 20260903140609 | 32 | 157 | 6.4 | 12.9 | 0.00 | 0.46 | 0.03 | 100 | 1016.5 |
| 20260903140250 | 32 | 157 | 6.4 | 12.9 | 0.00 | 0.46 | 0.03 | 100 | 1016.5 |
| 20260903140106 | 30 | 98 | 1.6 | 9.7 | 0.00 | 0.46 | 0.03 | 100 | 1016.4 |
| 20260903135750 | 30 | 98 | 1.6 | 9.7 | 0.00 | 0.46 | 0.03 | 100 | 1016.4 |
| 20260903135514 | 30 | 164 | 4.8 | 9.7 | 0.00 | 0.46 | 0.03 | 100 | 1016.4 |
| 20260903135250 | 30 | 164 | 4.8 | 9.7 | 0.00 | 0.46 | 0.03 | 100 | 1016.4 |
| 20260903135009 | 31 | 187 | 6.4 | 11.3 | 0.00 | 0.46 | 0.03 | 100 | 1016.4 |
| 20260903134750 | 31 | 187 | 6.4 | 11.3 | 0.00 | 0.46 | 0.03 | 100 | 1016.4 |
| 20260903134250 | 30 | 172 | 8.0 | 9.7 | 0.00 | 0.46 | 0.03 | 100 | 1016.4 |
| 20260903134124 | 28 | 182 | 8.0 | 9.7 | 0.00 | 0.46 | 0.03 | 100 | 1016.5 |
| 20260903133750 | 28 | 182 | 8.0 | 9.7 | 0.00 | 0.46 | 0.03 | 100 | 1016.5 |
| 20260903133550 | 30 | 102 | 3.2 | 9.7 | 0.00 | 0.46 | 0.03 | 100 | 1016.5 |
| 20260903133250 | 30 | 102 | 3.2 | 9.7 | 0.00 | 0.46 | 0.03 | 100 | 1016.5 |
| 20260903133051 | 28 | 165 | 8.0 | 9.7 | 0.00 | 0.46 | 0.03 | 100 | 1016.5 |
| 20260903132828 | 28 | 165 | 8.0 | 9.7 | 0.00 | 0.46 | 0.03 | 100 | 1016.5 |
| 20260903132750 | 28 | 165 | 8.0 | 9.7 | 0.00 | 0.46 | 0.03 | 100 | 1016.5 |
| 20260903132617 | 28 | 164 | 1.6 | 8.0 | 0.00 | 0.46 | 0.03 | 100 | 1016.5 |
| 20260903132250 | 28 | 164 | 1.6 | 8.0 | 0.00 | 0.46 | 0.03 | 100 | 1016.5 |
| 20260903132121 | 28 | 143 | 3.2 | 8.0 | 0.00 | 0.46 | 0.03 | 100 | 1016.4 |
| 20260903131750 | 28 | 143 | 3.2 | 8.0 | 0.00 | 0.46 | 0.03 | 100 | 1016.4 |
| 20260903131528 | 28 | 168 | 8.0 | 8.0 | 0.00 | 0.46 | 0.03 | 100 | 1016.4 |
| 20260903131250 | 28 | 168 | 8.0 | 8.0 | 0.00 | 0.46 | 0.03 | 100 | 1016.4 |
| 20260903130750 | 28 | 102 | 3.2 | 9.7 | 0.03 | 0.46 | 0.03 | 100 | 1016.3 |
| 20260903130527 | 28 | 143 | 4.8 | 9.7 | 0.03 | 0.46 | 0.03 | 100 | 1016.3 |
| 20260903130250 | 28 | 143 | 4.8 | 9.7 | 0.03 | 0.46 | 0.03 | 100 | 1016.3 |
| 20260903125750 | 28 | 95 | 9.7 | 9.7 | 0.03 | 0.46 | 0.03 | 100 | 1016.3 |
| 20260903125250 | 28 | 91 | 4.8 | 8.0 | 0.03 | 0.46 | 0.03 | 100 | 1016.2 |
| 20260903125049 | 27 | 154 | 4.8 | 9.7 | 0.03 | 0.46 | 0.03 | 100 | 1016.1 |
| 20260903124750 | 27 | 154 | 4.8 | 9.7 | 0.03 | 0.46 | 0.03 | 100 | 1016.1 |
| 20260903124535 | 26 | 97 | 6.4 | 11.3 | 0.03 | 0.46 | 0.03 | 100 | 1016.2 |
| 20260903124250 | 26 | 97 | 6.4 | 11.3 | 0.03 | 0.46 | 0.03 | 100 | 1016.2 |
| 20260903124028 | 26 | 97 | 1.6 | 8.0 | 0.03 | 0.46 | 0.03 | 100 | 1016.1 |
| 20260903123750 | 26 | 97 | 1.6 | 8.0 | 0.03 | 0.46 | 0.03 | 100 | 1016.1 |
| 20260903123250 | 26 | 80 | 1.6 | 6.4 | 0.03 | 0.46 | 0.03 | 100 | 1016.1 |
| 20260903123004 | 25 | 144 | 4.8 | 9.7 | 0.03 | 0.46 | 0.03 | 100 | 1016.1 |
| 20260903122750 | 25 | 144 | 4.8 | 9.7 | 0.03 | 0.46 | 0.03 | 100 | 1016.1 |
| 20260903122616 | 25 | 133 | 1.6 | 4.8 | 0.03 | 0.46 | 0.03 | 100 | 1016.1 |
| 20260903122250 | 25 | 133 | 1.6 | 4.8 | 0.03 | 0.46 | 0.03 | 100 | 1016.1 |
| 20260903121750 | 25 | 56 | 0.0 | 0.0 | 0.03 | 0.46 | 0.03 | 100 | 1015.9 |
| 20260903121250 | 25 | 56 | 0.0 | 0.0 | 0.03 | 0.46 | 0.03 | 100 | 1015.9 |
| 20260903120751 | 25 | 56 | 0.0 | 0.0 | 0.00 | 0.43 | 0.00 | 100 | 1015.9 |
| 20260903120506 | 25 | 56 | 0.0 | 0.0 | 0.00 | 0.43 | 0.00 | 100 | 1015.8 |
| 20260903120251 | 25 | 56 | 0.0 | 0.0 | 0.00 | 0.43 | 0.00 | 100 | 1015.8 |
| 20260903115751 | 25 | 56 | 0.0 | 0.0 | 0.00 | 0.43 | 0.00 | 100 | 1015.6 |
| 20260903115251 | 25 | 56 | 0.0 | 0.0 | 0.00 | 0.43 | 0.00 | 100 | 1015.6 |
| 20260903115033 | 25 | 56 | 0.0 | 0.0 | 0.00 | 0.43 | 0.00 | 100 | 1015.5 |
| 20260903114751 | 25 | 56 | 0.0 | 0.0 | 0.00 | 0.43 | 0.00 | 100 | 1015.5 |
| 20260903114543 | 25 | 56 | 0.0 | 0.0 | 0.00 | 0.43 | 0.00 | 100 | 1015.3 |
| 20260903114251 | 25 | 56 | 0.0 | 0.0 | 0.00 | 0.43 | 0.00 | 100 | 1015.3 |
| 20260903113751 | 25 | 56 | 0.0 | 0.0 | 0.00 | 0.43 | 0.00 | 100 | 1015.3 |
| 20260903113251 | 24 | 56 | 0.0 | 0.0 | 0.00 | 0.43 | 0.00 | 100 | 1015.2 |
| 20260903113012 | 24 | 56 | 0.0 | 0.0 | 0.00 | 0.43 | 0.00 | 100 | 1015.0 |
| 20260903112751 | 24 | 56 | 0.0 | 0.0 | 0.00 | 0.43 | 0.00 | 100 | 1015.0 |
| 20260903112613 | 24 | 56 | 0.0 | 0.0 | 0.00 | 0.43 | 0.00 | 100 | 1015.2 |
| 20260903112251 | 24 | 56 | 0.0 | 0.0 | 0.00 | 0.43 | 0.00 | 100 | 1015.2 |
| 20260903112123 | 24 | 56 | 0.0 | 0.0 | 0.00 | 0.43 | 0.00 | 100 | 1015.2 |
| 20260903111751 | 24 | 56 | 0.0 | 0.0 | 0.00 | 0.43 | 0.00 | 100 | 1015.2 |
| 20260903111539 | 24 | 56 | 0.0 | 0.0 | 0.00 | 0.43 | 0.00 | 100 | 1015.1 |
| 20260903111251 | 24 | 56 | 0.0 | 0.0 | 0.00 | 0.43 | 0.00 | 100 | 1015.1 |
| 20260903110751 | 24 | 56 | 0.0 | 0.0 | 0.00 | 0.43 | 0.00 | 100 | 1015.1 |
| 20260903110251 | 24 | 56 | 0.0 | 0.0 | 0.00 | 0.43 | 0.00 | 100 | 1015.2 |
| 20260903110010 | 24 | 56 | 0.0 | 0.0 | 0.00 | 0.43 | 0.00 | 100 | 1015.2 |
| 20260903105751 | 24 | 56 | 0.0 | 0.0 | 0.00 | 0.43 | 0.00 | 100 | 1015.2 |
| 20260903105251 | 24 | 56 | 0.0 | 0.0 | 0.00 | 0.43 | 0.00 | 100 | 1015.2 |
| 20260903104751 | 24 | 56 | 0.0 | 0.0 | 0.00 | 0.43 | 0.00 | 100 | 1015.1 |
| 20260903104552 | 25 | 56 | 0.0 | 0.0 | 0.00 | 0.43 | 0.00 | 100 | 1015.0 |
| 20260903104251 | 25 | 56 | 0.0 | 0.0 | 0.00 | 0.43 | 0.00 | 100 | 1015.0 |
| 20260903104139 | 25 | 56 | 0.0 | 0.0 | 0.00 | 0.43 | 0.00 | 100 | 1014.9 |
| 20260903103751 | 25 | 56 | 0.0 | 0.0 | 0.00 | 0.43 | 0.00 | 100 | 1014.9 |
| 20260903103251 | 25 | 56 | 0.0 | 0.0 | 0.00 | 0.43 | 0.00 | 100 | 1014.9 |
| 20260903103036 | 25 | 56 | 0.0 | 0.0 | 0.00 | 0.43 | 0.00 | 100 | 1015.0 |
| 20260903102751 | 25 | 56 | 0.0 | 0.0 | 0.00 | 0.43 | 0.00 | 100 | 1015.0 |
| 20260903102251 | 25 | 56 | 0.0 | 0.0 | 0.00 | 0.43 | 0.00 | 100 | 1015.0 |
| 20260903101751 | 25 | 56 | 0.0 | 0.0 | 0.00 | 0.43 | 0.00 | 100 | 1014.9 |
| 20260903101534 | 25 | 56 | 0.0 | 0.0 | 0.00 | 0.43 | 0.00 | 100 | 1014.9 |
| 20260903101251 | 25 | 56 | 0.0 | 0.0 | 0.00 | 0.43 | 0.00 | 100 | 1014.9 |
| 20260903100751 | 25 | 56 | 0.0 | 0.0 | 0.00 | 0.43 | 0.00 | 100 | 1014.9 |
| 20260903100251 | 25 | 56 | 0.0 | 0.0 | 0.00 | 0.46 | 0.00 | 100 | 1014.7 |
| 20260903095751 | 25 | 56 | 0.0 | 0.0 | 0.00 | 0.46 | 0.00 | 100 | 1014.7 |
| 20260903095451 | 25 | 68 | 0.0 | 0.0 | 0.00 | 0.46 | 0.00 | 100 | 1014.9 |
| 20260903095251 | 25 | 56 | 0.0 | 0.0 | 0.00 | 0.46 | 0.00 | 100 | 1014.7 |
| 20260903094751 | 25 | 56 | 0.0 | 0.0 | 0.00 | 0.46 | 0.00 | 100 | 1014.5 |
| 20260903094251 | 25 | 56 | 0.0 | 0.0 | 0.00 | 0.46 | 0.00 | 100 | 1014.4 |
| 20260903093751 | 25 | 56 | 0.0 | 0.0 | 0.00 | 0.46 | 0.00 | 100 | 1014.2 |
| 20260903093251 | 25 | 56 | 0.0 | 0.0 | 0.00 | 0.46 | 0.00 | 100 | 1014.2 |
| 20260903093201 | 25 | 56 | 0.0 | 0.0 | 0.00 | 0.46 | 0.00 | 100 | 1014.1 |
| 20260903093040 | 25 | 56 | 0.0 | 0.0 | 0.00 | 0.46 | 0.00 | 100 | 1014.1 |
| 20260903092751 | 25 | 56 | 0.0 | 0.0 | 0.00 | 0.46 | 0.00 | 100 | 1014.1 |
| 20260903092647 | 25 | 56 | 0.0 | 0.0 | 0.00 | 0.46 | 0.00 | 100 | 1014.1 |
| 20260903092251 | 25 | 56 | 0.0 | 0.0 | 0.00 | 0.46 | 0.00 | 100 | 1014.1 |
| 20260903091751 | 25 | 56 | 0.0 | 0.0 | 0.00 | 0.46 | 0.00 | 100 | 1014.1 |
| 20260903091251 | 25 | 56 | 0.0 | 3.2 | 0.00 | 0.46 | 0.00 | 100 | 1014.1 |
| 20260903090751 | 25 | 28 | 0.0 | 0.0 | 0.00 | 0.46 | 0.00 | 100 | 1014.1 |
| 20260903090251 | 25 | 28 | 0.0 | 0.0 | 0.00 | 0.46 | 0.00 | 100 | 1014.2 |
| 20260903085751 | 25 | 28 | 0.0 | 0.0 | 0.00 | 0.46 | 0.00 | 100 | 1014.1 |
| 20260903085538 | 25 | 28 | 0.0 | 0.0 | 0.00 | 0.46 | 0.00 | 100 | 1014.1 |
| 20260903085251 | 25 | 28 | 0.0 | 0.0 | 0.00 | 0.46 | 0.00 | 100 | 1014.1 |
| 20260903085105 | 25 | 28 | 0.0 | 0.0 | 0.00 | 0.46 | 0.00 | 100 | 1014.1 |
| 20260903084751 | 25 | 28 | 0.0 | 0.0 | 0.00 | 0.46 | 0.00 | 100 | 1014.1 |
| 20260903084251 | 25 | 28 | 0.0 | 0.0 | 0.00 | 0.46 | 0.00 | 100 | 1014.0 |
| 20260903083954 | 25 | 28 | 0.0 | 0.0 | 0.00 | 0.46 | 0.00 | 100 | 1014.0 |
| 20260903083751 | 25 | 28 | 0.0 | 0.0 | 0.00 | 0.46 | 0.00 | 100 | 1014.0 |
| 20260903083251 | 25 | 28 | 0.0 | 0.0 | 0.00 | 0.46 | 0.00 | 100 | 1013.9 |
| 20260903083037 | 25 | 28 | 0.0 | 0.0 | 0.00 | 0.46 | 0.00 | 100 | 1014.0 |
| 20260903082751 | 25 | 28 | 0.0 | 0.0 | 0.00 | 0.46 | 0.00 | 100 | 1014.0 |
| 20260903082536 | 25 | 28 | 0.0 | 0.0 | 0.00 | 0.46 | 0.00 | 100 | 1014.0 |
| 20260903082251 | 25 | 28 | 0.0 | 0.0 | 0.00 | 0.46 | 0.00 | 100 | 1014.0 |
| 20260903081751 | 25 | 28 | 0.0 | 0.0 | 0.00 | 0.46 | 0.00 | 100 | 1014.0 |
| 20260903081551 | 25 | 28 | 0.0 | 0.0 | 0.00 | 0.46 | 0.00 | 100 | 1014.0 |
| 20260903081251 | 25 | 28 | 0.0 | 0.0 | 0.00 | 0.46 | 0.00 | 100 | 1014.0 |
| 20260903080752 | 25 | 28 | 0.0 | 0.0 | 0.00 | 0.46 | 0.00 | 100 | 1014.1 |
| 20260903080252 | 25 | 28 | 0.0 | 0.0 | 0.00 | 0.46 | 0.00 | 100 | 1014.1 |
| 20260903080037 | 25 | 28 | 0.0 | 0.0 | 0.00 | 0.46 | 0.00 | 100 | 1014.2 |
| 20260903075752 | 25 | 28 | 0.0 | 0.0 | 0.00 | 0.46 | 0.00 | 100 | 1014.2 |
| 20260903075252 | 25 | 28 | 0.0 | 0.0 | 0.00 | 0.46 | 0.00 | 100 | 1014.3 |
| 20260903074752 | 25 | 28 | 0.0 | 0.0 | 0.00 | 0.46 | 0.00 | 100 | 1014.3 |
| 20260903074252 | 25 | 28 | 0.0 | 0.0 | 0.00 | 0.46 | 0.00 | 100 | 1014.4 |
| 20260903073952 | 25 | 28 | 0.0 | 0.0 | 0.00 | 0.46 | 0.00 | 100 | 1014.4 |
| 20260903073752 | 25 | 28 | 0.0 | 0.0 | 0.00 | 0.46 | 0.00 | 100 | 1014.4 |
| 20260903073252 | 25 | 28 | 0.0 | 0.0 | 0.00 | 0.46 | 0.00 | 100 | 1014.4 |
| 20260903073049 | 25 | 28 | 0.0 | 4.8 | 0.00 | 0.46 | 0.00 | 100 | 1014.5 |
| 20260903072752 | 25 | 28 | 0.0 | 4.8 | 0.00 | 0.46 | 0.00 | 100 | 1014.5 |
| 20260903072252 | 25 | 351 | 1.6 | 3.2 | 0.00 | 0.46 | 0.00 | 100 | 1014.5 |
| 20260903072109 | 25 | 40 | 0.0 | 0.0 | 0.00 | 0.46 | 0.00 | 100 | 1014.5 |
| 20260903071752 | 25 | 40 | 0.0 | 0.0 | 0.00 | 0.46 | 0.00 | 100 | 1014.5 |
| 20260903071252 | 25 | 40 | 0.0 | 3.2 | 0.00 | 0.46 | 0.00 | 100 | 1014.4 |
| 20260903071012 | 25 | 53 | 1.6 | 6.4 | 0.00 | 0.46 | 0.00 | 100 | 1014.3 |
| 20260903070752 | 25 | 53 | 1.6 | 6.4 | 0.00 | 0.46 | 0.00 | 100 | 1014.3 |
| 20260903070252 | 25 | 59 | 0.0 | 4.8 | 0.00 | 0.46 | 0.00 | 100 | 1014.5 |
| 20260903070037 | 25 | 56 | 1.6 | 3.2 | 0.00 | 0.46 | 0.00 | 100 | 1014.7 |
| 20260903065752 | 25 | 56 | 1.6 | 3.2 | 0.00 | 0.46 | 0.00 | 100 | 1014.7 |
| 20260903065616 | 25 | 68 | 0.0 | 0.0 | 0.00 | 0.46 | 0.00 | 100 | 1014.9 |
| 20260903065252 | 25 | 68 | 0.0 | 0.0 | 0.00 | 0.46 | 0.00 | 100 | 1014.9 |
| 20260903064752 | 25 | 68 | 0.0 | 0.0 | 0.00 | 0.46 | 0.00 | 100 | 1014.9 |
| 20260903064252 | 25 | 68 | 0.0 | 0.0 | 0.00 | 0.46 | 0.00 | 100 | 1015.0 |
| 20260903063956 | 25 | 68 | 0.0 | 0.0 | 0.00 | 0.46 | 0.00 | 100 | 1014.9 |
| 20260903063752 | 25 | 68 | 0.0 | 0.0 | 0.00 | 0.46 | 0.00 | 100 | 1014.9 |
| 20260903063458 | 25 | 68 | 0.0 | 0.0 | 0.00 | 0.46 | 0.00 | 100 | 1014.9 |
| 20260903063252 | 25 | 68 | 0.0 | 0.0 | 0.00 | 0.46 | 0.00 | 100 | 1014.9 |
| 20260903062752 | 25 | 68 | 0.0 | 0.0 | 0.00 | 0.46 | 0.00 | 100 | 1015.0 |
| 20260903062536 | 25 | 68 | 0.0 | 0.0 | 0.00 | 0.46 | 0.00 | 100 | 1015.1 |
| 20260903062252 | 25 | 68 | 0.0 | 0.0 | 0.00 | 0.46 | 0.00 | 100 | 1015.1 |
| 20260903061752 | 25 | 68 | 0.0 | 3.2 | 0.00 | 0.46 | 0.00 | 100 | 1015.1 |
| 20260903061618 | 25 | 149 | 1.6 | 3.2 | 0.00 | 0.46 | 0.00 | 100 | 1015.1 |
| 20260903061252 | 25 | 149 | 1.6 | 3.2 | 0.00 | 0.46 | 0.00 | 100 | 1015.1 |
| 20260903060752 | 25 | 108 | 0.0 | 4.8 | 0.00 | 0.46 | 0.00 | 100 | 1015.1 |
| 20260903060252 | 25 | 112 | 0.0 | 0.0 | 0.00 | 0.46 | 0.00 | 100 | 1015.1 |
| 20260903060143 | 25 | 112 | 0.0 | 0.0 | 0.00 | 0.46 | 0.00 | 100 | 1015.0 |
| 20260903060048 | 25 | 112 | 0.0 | 0.0 | 0.00 | 0.46 | 0.00 | 100 | 1015.0 |
| 20260903055752 | 25 | 112 | 0.0 | 0.0 | 0.00 | 0.46 | 0.00 | 100 | 1015.0 |
| 20260903055713 | 25 | 112 | 0.0 | 0.0 | 0.00 | 0.46 | 0.00 | 100 | 1015.0 |
| 20260903055252 | 25 | 112 | 0.0 | 0.0 | 0.00 | 0.46 | 0.00 | 100 | 1015.0 |
| 20260903054956 | 25 | 112 | 0.0 | 0.0 | 0.00 | 0.46 | 0.00 | 100 | 1015.0 |
| 20260903054752 | 25 | 112 | 0.0 | 0.0 | 0.00 | 0.46 | 0.00 | 100 | 1015.0 |
| 20260903054736 | 22 | 56 | 0.0 | 0.0 | 0.00 | 2.24 | 0.00 | 100 | 1017.0 |
| 20260903054546 | 25 | 112 | 0.0 | 3.2 | 0.00 | 0.46 | 0.00 | 100 | 1015.0 |
| 20260903054252 | 25 | 112 | 0.0 | 3.2 | 0.00 | 0.46 | 0.00 | 100 | 1015.0 |
| 20260903053752 | 25 | 120 | 1.6 | 4.8 | 0.00 | 0.46 | 0.00 | 100 | 1015.0 |
| 20260903053624 | 25 | 81 | 0.0 | 0.0 | 0.00 | 0.46 | 0.00 | 100 | 1015.0 |
| 20260903053252 | 25 | 81 | 0.0 | 0.0 | 0.00 | 0.46 | 0.00 | 100 | 1015.0 |
| 20260903053043 | 25 | 81 | 0.0 | 0.0 | 0.00 | 0.46 | 0.00 | 100 | 1015.1 |
| 20260903052752 | 25 | 81 | 0.0 | 0.0 | 0.00 | 0.46 | 0.00 | 100 | 1015.1 |
| 20260903052252 | 25 | 81 | 0.0 | 4.8 | 0.00 | 0.46 | 0.00 | 100 | 1015.1 |
| 20260903052101 | 25 | 73 | 0.0 | 4.8 | 0.00 | 0.46 | 0.00 | 100 | 1015.3 |
| 20260903051752 | 25 | 73 | 0.0 | 4.8 | 0.00 | 0.46 | 0.00 | 100 | 1015.3 |
| 20260903051252 | 25 | 70 | 1.6 | 6.4 | 0.03 | 0.46 | 0.00 | 100 | 1015.4 |
| 20260903050752 | 25 | 47 | 0.0 | 3.2 | 0.03 | 0.46 | 0.00 | 100 | 1015.4 |
| 20260903050252 | 25 | 71 | 0.0 | 6.4 | 0.03 | 0.46 | 0.00 | 100 | 1015.4 |
| 20260903045752 | 25 | 109 | 4.8 | 6.4 | 0.03 | 0.46 | 0.00 | 100 | 1015.5 |
| 20260903045713 | 25 | 63 | 0.0 | 6.4 | 0.03 | 0.46 | 0.46 | 100 | 1015.6 |
| 20260903045628 | 25 | 63 | 0.0 | 6.4 | 0.03 | 0.46 | 0.46 | 100 | 1015.6 |
| 20260903045252 | 25 | 63 | 0.0 | 6.4 | 0.03 | 0.46 | 0.46 | 100 | 1015.6 |
| 20260903044752 | 25 | 98 | 3.2 | 6.4 | 0.03 | 0.46 | 0.46 | 100 | 1015.6 |
| 20260903044252 | 25 | 61 | 0.0 | 9.7 | 0.05 | 0.46 | 0.46 | 100 | 1015.7 |
| 20260903043752 | 25 | 78 | 4.8 | 8.0 | 0.05 | 0.46 | 0.46 | 100 | 1015.7 |
| 20260903043622 | 25 | 88 | 4.8 | 6.4 | 0.08 | 0.46 | 0.46 | 100 | 1015.9 |
| 20260903043253 | 25 | 88 | 4.8 | 6.4 | 0.08 | 0.46 | 0.46 | 100 | 1015.9 |
| 20260903042752 | 25 | 92 | 3.2 | 3.2 | 0.08 | 0.46 | 0.46 | 100 | 1015.9 |
| 20260903042614 | 26 | 216 | 0.0 | 1.6 | 0.08 | 0.46 | 0.46 | 100 | 1016.0 |
| 20260903042252 | 26 | 216 | 0.0 | 1.6 | 0.08 | 0.46 | 0.46 | 100 | 1016.0 |
| 20260903042023 | 25 | 217 | 0.0 | 4.8 | 0.08 | 0.46 | 0.46 | 100 | 1016.1 |
| 20260903041752 | 25 | 217 | 0.0 | 4.8 | 0.08 | 0.46 | 0.46 | 100 | 1016.1 |
| 20260903041252 | 26 | 33 | 0.0 | 0.0 | 0.08 | 0.43 | 0.43 | 100 | 1016.2 |
| 20260903041152 | 26 | 33 | 0.0 | 3.2 | 0.08 | 0.43 | 0.43 | 100 | 1016.2 |
| 20260903040753 | 26 | 33 | 0.0 | 3.2 | 0.08 | 0.43 | 0.43 | 100 | 1016.2 |
| 20260903040607 | 25 | 15 | 1.6 | 8.0 | 0.08 | 0.43 | 0.43 | 100 | 1016.2 |
| 20260903040253 | 25 | 15 | 1.6 | 8.0 | 0.08 | 0.43 | 0.43 | 100 | 1016.2 |
| 20260903040139 | 25 | 30 | 0.0 | 6.4 | 0.08 | 0.43 | 0.43 | 100 | 1016.3 |
| 20260903035753 | 25 | 30 | 0.0 | 6.4 | 0.08 | 0.43 | 0.43 | 100 | 1016.3 |
| 20260903035253 | 25 | 67 | 0.0 | 9.7 | 0.08 | 0.43 | 0.43 | 100 | 1016.2 |
| 20260903035153 | 25 | 80 | 6.4 | 8.0 | 0.08 | 0.43 | 0.43 | 100 | 1016.2 |
| 20260903034753 | 25 | 80 | 6.4 | 8.0 | 0.08 | 0.43 | 0.43 | 100 | 1016.2 |
| 20260903034253 | 25 | 95 | 1.6 | 8.0 | 0.08 | 0.41 | 0.41 | 100 | 1016.3 |
| 20260903034121 | 25 | 82 | 6.4 | 8.0 | 0.08 | 0.41 | 0.41 | 100 | 1016.3 |
| 20260903033753 | 25 | 82 | 6.4 | 8.0 | 0.08 | 0.41 | 0.41 | 100 | 1016.3 |
| 20260903033253 | 26 | 77 | 3.2 | 8.0 | 0.05 | 0.38 | 0.38 | 100 | 1016.4 |
| 20260903032753 | 25 | 61 | 6.4 | 8.0 | 0.05 | 0.38 | 0.38 | 100 | 1016.3 |
| 20260903032253 | 26 | 60 | 0.0 | 4.8 | 0.05 | 0.38 | 0.38 | 100 | 1016.3 |
| 20260903031753 | 26 | 29 | 1.6 | 3.2 | 0.05 | 0.38 | 0.38 | 100 | 1016.3 |
| 20260903031253 | 26 | 338 | 0.0 | 4.8 | 0.03 | 0.36 | 0.36 | 100 | 1016.3 |
| 20260903031113 | 26 | 29 | 0.0 | 0.0 | 0.03 | 0.36 | 0.36 | 100 | 1016.3 |
| 20260903030753 | 26 | 29 | 0.0 | 0.0 | 0.03 | 0.36 | 0.36 | 100 | 1016.3 |
| 20260903030253 | 26 | 29 | 0.0 | 0.0 | 0.03 | 0.36 | 0.36 | 100 | 1016.4 |
| 20260903025753 | 26 | 29 | 0.0 | 0.0 | 0.03 | 0.36 | 0.36 | 100 | 1016.5 |
| 20260903025253 | 26 | 29 | 0.0 | 0.0 | 0.03 | 0.36 | 0.36 | 100 | 1016.6 |
| 20260903024753 | 25 | 29 | 0.0 | 0.0 | 0.03 | 0.36 | 0.36 | 100 | 1016.6 |
| 20260903024253 | 26 | 29 | 0.0 | 0.0 | 0.00 | 0.33 | 0.33 | 100 | 1016.6 |
| 20260903023922 | 26 | 29 | 0.0 | 3.2 | 0.00 | 0.33 | 0.33 | 100 | 1016.6 |
| 20260903023753 | 26 | 29 | 0.0 | 3.2 | 0.00 | 0.33 | 0.33 | 100 | 1016.6 |
| 20260903023654 | 26 | 23 | 3.2 | 3.2 | 0.00 | 0.33 | 0.33 | 100 | 1016.5 |
| 20260903023253 | 26 | 23 | 3.2 | 3.2 | 0.00 | 0.33 | 0.33 | 100 | 1016.5 |
| 20260903023119 | 26 | 4 | 0.0 | 3.2 | 0.00 | 0.33 | 0.33 | 100 | 1016.5 |
| 20260903022753 | 26 | 4 | 0.0 | 3.2 | 0.00 | 0.33 | 0.33 | 100 | 1016.5 |
| 20260903022253 | 26 | 18 | 1.6 | 3.2 | 0.00 | 0.33 | 0.33 | 100 | 1016.6 |
| 20260903022023 | 26 | 171 | 1.6 | 1.6 | 0.00 | 0.33 | 0.33 | 100 | 1016.7 |
| 20260903021753 | 26 | 171 | 1.6 | 1.6 | 0.00 | 0.33 | 0.33 | 100 | 1016.7 |
| 20260903021617 | 26 | 172 | 0.0 | 8.0 | 0.00 | 0.33 | 0.33 | 100 | 1016.8 |
| 20260903021253 | 26 | 172 | 0.0 | 8.0 | 0.00 | 0.33 | 0.33 | 100 | 1016.8 |
| 20260903021118 | 25 | 165 | 4.8 | 6.4 | 0.00 | 0.33 | 0.33 | 100 | 1016.9 |
| 20260903020753 | 25 | 165 | 4.8 | 6.4 | 0.00 | 0.33 | 0.33 | 100 | 1016.9 |
| 20260903020253 | 26 | 1 | 0.0 | 0.0 | 0.00 | 0.33 | 0.33 | 100 | 1016.6 |
| 20260903015753 | 26 | 1 | 0.0 | 0.0 | 0.00 | 0.33 | 0.33 | 100 | 1016.5 |
| 20260903015253 | 26 | 1 | 0.0 | 0.0 | 0.00 | 0.33 | 0.33 | 100 | 1016.4 |
| 20260903014753 | 26 | 1 | 0.0 | 3.2 | 0.00 | 0.33 | 0.33 | 100 | 1016.2 |
| 20260903014253 | 26 | 53 | 0.0 | 0.0 | 0.00 | 0.33 | 0.33 | 100 | 1016.1 |
| 20260903013753 | 26 | 25 | 0.0 | 0.0 | 0.00 | 0.33 | 0.33 | 100 | 1016.0 |
| 20260903013618 | 26 | 25 | 0.0 | 0.0 | 0.00 | 0.33 | 0.33 | 100 | 1016.0 |
| 20260903013253 | 26 | 25 | 0.0 | 0.0 | 0.00 | 0.33 | 0.33 | 100 | 1016.0 |
| 20260903012753 | 26 | 25 | 0.0 | 0.0 | 0.00 | 0.33 | 0.33 | 100 | 1016.2 |
| 20260903012657 | 26 | 25 | 0.0 | 0.0 | 0.00 | 0.33 | 0.33 | 100 | 1016.3 |
| 20260903012253 | 26 | 25 | 0.0 | 0.0 | 0.00 | 0.33 | 0.33 | 100 | 1016.3 |
| 20260903012043 | 26 | 25 | 0.0 | 0.0 | 0.00 | 0.33 | 0.33 | 100 | 1016.3 |
| 20260903011753 | 26 | 25 | 0.0 | 0.0 | 0.00 | 0.33 | 0.33 | 100 | 1016.3 |
| 20260903011253 | 26 | 25 | 0.0 | 4.8 | 0.00 | 0.33 | 0.33 | 100 | 1016.4 |
| 20260903010753 | 26 | 348 | 4.8 | 4.8 | 0.00 | 0.33 | 0.33 | 100 | 1016.2 |
| 20260903010253 | 26 | 90 | 0.0 | 0.0 | 0.03 | 0.36 | 0.33 | 100 | 1016.1 |
| 20260903010040 | 26 | 90 | 0.0 | 0.0 | 0.03 | 0.36 | 0.33 | 100 | 1016.0 |
| 20260903005753 | 26 | 90 | 0.0 | 0.0 | 0.03 | 0.36 | 0.33 | 100 | 1016.0 |
| 20260903005253 | 26 | 90 | 0.0 | 0.0 | 0.03 | 0.36 | 0.33 | 100 | 1015.9 |
| 20260903004753 | 26 | 90 | 0.0 | 0.0 | 0.03 | 0.36 | 0.33 | 100 | 1015.7 |
| 20260903004253 | 26 | 90 | 0.0 | 0.0 | 0.03 | 0.36 | 0.33 | 100 | 1015.6 |
| 20260903004117 | 26 | 90 | 0.0 | 0.0 | 0.03 | 0.36 | 0.33 | 100 | 1015.6 |
| 20260903004044 | 26 | 90 | 0.0 | 0.0 | 0.03 | 0.36 | 0.33 | 100 | 1015.6 |
| 20260903003753 | 26 | 90 | 0.0 | 0.0 | 0.03 | 0.36 | 0.33 | 100 | 1015.6 |
| 20260903003454 | 26 | 90 | 0.0 | 0.0 | 0.03 | 0.36 | 0.33 | 100 | 1015.7 |
| 20260903003253 | 26 | 90 | 0.0 | 0.0 | 0.03 | 0.36 | 0.33 | 100 | 1015.7 |
| 20260903002753 | 26 | 90 | 0.0 | 0.0 | 0.03 | 0.36 | 0.33 | 100 | 1015.5 |
| 20260903002253 | 26 | 90 | 0.0 | 6.4 | 0.03 | 0.36 | 0.33 | 100 | 1015.1 |
| 20260903002122 | 26 | 81 | 3.2 | 6.4 | 0.05 | 0.36 | 0.33 | 100 | 1015.2 |
| 20260903001753 | 26 | 81 | 3.2 | 6.4 | 0.05 | 0.36 | 0.33 | 100 | 1015.2 |
| 20260903001253 | 26 | 15 | 0.0 | 0.0 | 0.05 | 0.36 | 0.33 | 100 | 1015.3 |
| 20260903001128 | 26 | 15 | 0.0 | 8.0 | 0.05 | 0.36 | 0.33 | 100 | 1015.2 |
| 20260903000754 | 26 | 15 | 0.0 | 8.0 | 0.05 | 0.36 | 0.33 | 100 | 1015.2 |
| 20260903000255 | 26 | 56 | 3.2 | 9.7 | 0.03 | 0.33 | 0.30 | 100 | 1015.2 |
| 20260903000039 | 26 | 46 | 4.8 | 9.7 | 0.03 | 0.33 | 0.30 | 100 | 1015.3 |
| 20260902235754 | 26 | 46 | 4.8 | 9.7 | 0.03 | 0.33 | 0.30 | 100 | 1015.3 |
| 20260902235254 | 26 | 8 | 0.0 | 9.7 | 0.03 | 0.33 | 0.30 | 100 | 1015.6 |
| 20260902234754 | 26 | 32 | 0.0 | 11.3 | 0.03 | 0.33 | 0.30 | 100 | 1015.8 |
| 20260902234523 | 26 | 47 | 9.7 | 9.7 | 0.03 | 0.33 | 0.30 | 100 | 1016.0 |
| 20260902234254 | 26 | 47 | 9.7 | 9.7 | 0.03 | 0.33 | 0.30 | 100 | 1016.0 |
| 20260902233754 | 26 | 37 | 3.2 | 9.7 | 0.03 | 0.33 | 0.30 | 100 | 1016.0 |
| 20260902233254 | 26 | 23 | 8.0 | 8.0 | 0.03 | 0.33 | 0.30 | 100 | 1016.0 |
| 20260902232754 | 26 | 14 | 6.4 | 9.7 | 0.03 | 0.33 | 0.30 | 100 | 1016.0 |
| 20260902232530 | 26 | 32 | 8.0 | 17.7 | 0.03 | 0.33 | 0.30 | 100 | 1016.1 |
| 20260902232254 | 26 | 32 | 8.0 | 17.7 | 0.03 | 0.33 | 0.30 | 100 | 1016.1 |
| 20260902231754 | 26 | 358 | 12.9 | 17.7 | 0.00 | 0.30 | 0.28 | 100 | 1016.2 |
| 20260902231254 | 26 | 358 | 8.0 | 19.3 | 0.00 | 0.30 | 0.28 | 100 | 1016.2 |
| 20260902231134 | 26 | 21 | 8.0 | 20.9 | 0.00 | 0.30 | 0.28 | 100 | 1016.3 |
| 20260902230754 | 26 | 21 | 8.0 | 20.9 | 0.00 | 0.30 | 0.28 | 100 | 1016.3 |
| 20260902230537 | 27 | 32 | 14.5 | 25.7 | 0.00 | 0.30 | 0.28 | 100 | 1016.1 |
| 20260902230254 | 27 | 32 | 14.5 | 25.7 | 0.00 | 0.30 | 0.28 | 100 | 1016.1 |
| 20260902225754 | 26 | 11 | 17.7 | 33.8 | 0.00 | 0.30 | 0.28 | 100 | 1016.1 |
| 20260902225536 | 27 | 358 | 12.9 | 30.6 | 0.00 | 0.30 | 0.28 | 100 | 1015.9 |
| 20260902225254 | 27 | 358 | 12.9 | 30.6 | 0.00 | 0.30 | 0.28 | 100 | 1015.9 |
| 20260902225024 | 27 | 9 | 11.3 | 32.2 | 0.00 | 0.30 | 0.28 | 100 | 1015.8 |
| 20260902224754 | 27 | 9 | 11.3 | 32.2 | 0.00 | 0.30 | 0.28 | 100 | 1015.8 |
| 20260902224254 | 28 | 343 | 9.7 | 35.4 | 0.00 | 0.30 | 0.28 | 100 | 1015.8 |
| 20260902223754 | 28 | 32 | 22.5 | 37.0 | 0.00 | 0.30 | 0.28 | 100 | 1015.6 |
| 20260902223254 | 28 | 1 | 8.0 | 17.7 | 0.00 | 0.30 | 0.28 | 100 | 1015.1 |
| 20260902223012 | 28 | 330 | 4.8 | 12.9 | 0.00 | 0.30 | 0.28 | 100 | 1015.0 |
| 20260902222754 | 28 | 330 | 4.8 | 12.9 | 0.00 | 0.30 | 0.28 | 100 | 1015.0 |
| 20260902222614 | 28 | 315 | 6.4 | 12.9 | 0.00 | 0.30 | 0.28 | 100 | 1015.1 |
| 20260902222254 | 28 | 315 | 6.4 | 12.9 | 0.00 | 0.30 | 0.28 | 100 | 1015.1 |
| 20260902222035 | 28 | 358 | 3.2 | 16.1 | 0.00 | 0.30 | 0.28 | 100 | 1015.3 |
| 20260902221754 | 28 | 358 | 3.2 | 16.1 | 0.00 | 0.30 | 0.28 | 100 | 1015.3 |
| 20260902221632 | 29 | 358 | 4.8 | 14.5 | 0.00 | 0.30 | 0.28 | 100 | 1015.2 |
| 20260902221254 | 29 | 358 | 4.8 | 14.5 | 0.00 | 0.30 | 0.28 | 100 | 1015.2 |
| 20260902221158 | 29 | 334 | 9.7 | 17.7 | 0.00 | 0.30 | 0.28 | 100 | 1015.1 |
| 20260902220754 | 29 | 334 | 9.7 | 17.7 | 0.00 | 0.30 | 0.28 | 100 | 1015.1 |
| 20260902220541 | 29 | 289 | 8.0 | 14.5 | 0.00 | 0.30 | 0.28 | 100 | 1014.9 |
| 20260902220254 | 29 | 289 | 8.0 | 14.5 | 0.00 | 0.30 | 0.28 | 100 | 1014.9 |
| 20260902220054 | 29 | 279 | 3.2 | 9.7 | 0.00 | 0.30 | 0.28 | 100 | 1014.9 |
| 20260902215754 | 29 | 279 | 3.2 | 9.7 | 0.00 | 0.30 | 0.28 | 100 | 1014.9 |
| 20260902215254 | 29 | 286 | 3.2 | 12.9 | 0.00 | 0.30 | 0.28 | 100 | 1014.7 |
| 20260902215123 | 29 | 303 | 0.0 | 9.7 | 0.00 | 0.30 | 0.28 | 100 | 1014.6 |
| 20260902214754 | 29 | 303 | 0.0 | 9.7 | 0.00 | 0.30 | 0.28 | 100 | 1014.6 |
| 20260902214609 | 29 | 337 | 4.8 | 9.7 | 0.00 | 0.30 | 0.28 | 100 | 1014.6 |
| 20260902214254 | 29 | 337 | 4.8 | 9.7 | 0.00 | 0.30 | 0.28 | 100 | 1014.6 |
| 20260902214050 | 29 | 292 | 1.6 | 4.8 | 0.00 | 0.30 | 0.28 | 100 | 1014.4 |
| 20260902213754 | 29 | 292 | 1.6 | 4.8 | 0.00 | 0.30 | 0.28 | 100 | 1014.4 |
| 20260902213254 | 29 | 296 | 0.0 | 4.8 | 0.00 | 0.30 | 0.28 | 100 | 1014.3 |
| 20260902212754 | 29 | 344 | 3.2 | 11.3 | 0.00 | 0.30 | 0.28 | 100 | 1014.4 |
| 20260902212257 | 30 | 281 | 4.8 | 11.3 | 0.00 | 0.30 | 0.28 | 100 | 1014.7 |
| 20260902212254 | 30 | 281 | 4.8 | 11.3 | 0.00 | 0.30 | 0.28 | 100 | 1014.7 |
| 20260902211754 | 30 | 302 | 0.0 | 11.3 | 0.00 | 0.30 | 0.28 | 100 | 1014.9 |
| 20260902211257 | 30 | 331 | 1.6 | 16.1 | 0.00 | 0.30 | 0.28 | 100 | 1014.8 |
| 20260902211254 | 30 | 331 | 1.6 | 16.1 | 0.00 | 0.30 | 0.28 | 100 | 1014.8 |
| 20260902211039 | 30 | 330 | 11.3 | 11.3 | 0.00 | 0.30 | 0.28 | 100 | 1014.6 |
| 20260902210754 | 30 | 330 | 11.3 | 11.3 | 0.00 | 0.30 | 0.28 | 100 | 1014.6 |
| 20260902210541 | 30 | 336 | 8.0 | 8.0 | 0.00 | 0.30 | 0.28 | 100 | 1014.5 |
| 20260902210254 | 30 | 336 | 8.0 | 8.0 | 0.00 | 0.30 | 0.28 | 100 | 1014.5 |
| 20260902210039 | 30 | 347 | 6.4 | 6.4 | 0.00 | 0.30 | 0.28 | 100 | 1014.4 |
| 20260902205754 | 30 | 347 | 6.4 | 6.4 | 0.00 | 0.30 | 0.28 | 100 | 1014.4 |
| 20260902205546 | 30 | 330 | 4.8 | 11.3 | 0.00 | 0.30 | 0.28 | 100 | 1014.5 |
| 20260902205254 | 30 | 330 | 4.8 | 11.3 | 0.00 | 0.30 | 0.28 | 100 | 1014.5 |
| 20260902205032 | 30 | 343 | 8.0 | 11.3 | 0.00 | 0.30 | 0.28 | 100 | 1014.8 |
| 20260902204754 | 30 | 343 | 8.0 | 11.3 | 0.00 | 0.30 | 0.28 | 100 | 1014.8 |
| 20260902204254 | 30 | 317 | 3.2 | 14.5 | 0.00 | 0.30 | 0.28 | 100 | 1014.8 |
| 20260902203754 | 30 | 329 | 4.8 | 11.3 | 0.00 | 0.30 | 0.28 | 100 | 1014.7 |
| 20260902203619 | 30 | 350 | 8.0 | 12.9 | 0.00 | 0.30 | 0.28 | 100 | 1014.7 |
| 20260902203254 | 30 | 350 | 8.0 | 12.9 | 0.00 | 0.30 | 0.28 | 100 | 1014.7 |
| 20260902203043 | 30 | 1 | 6.4 | 12.9 | 0.00 | 0.30 | 0.28 | 100 | 1014.7 |
| 20260902202754 | 30 | 1 | 6.4 | 12.9 | 0.00 | 0.30 | 0.28 | 100 | 1014.7 |
| 20260902202618 | 30 | 329 | 1.6 | 9.7 | 0.00 | 0.30 | 0.28 | 100 | 1014.7 |
| 20260902202254 | 30 | 329 | 1.6 | 9.7 | 0.00 | 0.30 | 0.28 | 100 | 1014.7 |
| 20260902202033 | 30 | 305 | 9.7 | 12.9 | 0.00 | 0.30 | 0.28 | 100 | 1014.8 |
| 20260902201754 | 30 | 305 | 9.7 | 12.9 | 0.00 | 0.30 | 0.28 | 100 | 1014.8 |
| 20260902201254 | 30 | 330 | 9.7 | 12.9 | 0.00 | 0.30 | 0.28 | 100 | 1014.9 |
| 20260902200754 | 30 | 336 | 3.2 | 9.7 | 0.00 | 0.30 | 0.28 | 100 | 1015.0 |
| 20260902200541 | 30 | 322 | 6.4 | 9.7 | 0.00 | 0.30 | 0.28 | 100 | 1015.1 |
| 20260902200255 | 30 | 322 | 6.4 | 9.7 | 0.00 | 0.30 | 0.28 | 100 | 1015.1 |
| 20260902200028 | 29 | 348 | 8.0 | 12.9 | 0.00 | 0.30 | 0.28 | 100 | 1015.2 |
| 20260902195754 | 29 | 348 | 8.0 | 12.9 | 0.00 | 0.30 | 0.28 | 100 | 1015.2 |
| 20260902195538 | 29 | 303 | 1.6 | 9.7 | 0.00 | 0.30 | 0.28 | 100 | 1015.2 |
| 20260902195254 | 29 | 303 | 1.6 | 9.7 | 0.00 | 0.30 | 0.28 | 100 | 1015.2 |
| 20260902194754 | 29 | 317 | 8.0 | 12.9 | 0.00 | 0.30 | 0.28 | 100 | 1015.4 |
| 20260902194255 | 29 | 309 | 6.4 | 11.3 | 0.00 | 0.30 | 0.28 | 100 | 1015.5 |
| 20260902194010 | 29 | 348 | 8.0 | 14.5 | 0.00 | 0.30 | 0.28 | 100 | 1015.5 |
| 20260902193755 | 29 | 348 | 8.0 | 14.5 | 0.00 | 0.30 | 0.28 | 100 | 1015.5 |